| time (UTC) | temp F | wind direction | speed MPH | gust MPH | rain 1hr in | rain 24hr in | rain mn in | humidity % | barometer mb |
| 20260902094531 | 54 | 88 | 2.0 | 5.0 | 0.00 | 0.00 | 0.00 | 88 | 1012.1 |
| 20260902091532 | 54 | 121 | 3.0 | 8.0 | 0.00 | 0.00 | 0.00 | 87 | 1012.4 |
| 20260902090031 | 54 | 128 | 2.0 | 6.0 | 0.00 | 0.00 | 0.00 | 87 | 1012.2 |
| 20260902084531 | 55 | 130 | 1.0 | 4.0 | 0.00 | 0.00 | 0.00 | 87 | 1012.3 |
| 20260902081529 | 56 | 136 | 1.0 | 3.0 | 0.00 | 0.00 | 0.00 | 83 | 1012.3 |
| 20260902080147 | 57 | 217 | 0.0 | 3.0 | 0.00 | 0.00 | 0.00 | 81 | 1012.4 |
| 20260902074528 | 58 | 286 | 2.0 | 7.0 | 0.00 | 0.00 | 0.00 | 80 | 1012.5 |
| 20260902071531 | 60 | 290 | 4.0 | 10.0 | 0.00 | 0.00 | 0.00 | 77 | 1012.6 |
| 20260902070030 | 60 | 295 | 4.0 | 10.0 | 0.00 | 0.00 | 0.00 | 76 | 1012.8 |
| 20260902064526 | 61 | 297 | 5.0 | 10.0 | 0.00 | 0.00 | 0.00 | 76 | 1012.9 |
| 20260902063030 | 61 | 294 | 6.0 | 13.0 | 0.00 | 0.00 | 0.00 | 75 | 1012.9 |
| 20260902060031 | 61 | 287 | 6.0 | 16.0 | 0.00 | 0.00 | 0.00 | 74 | 1013.0 |
| 20260902054530 | 61 | 299 | 6.0 | 13.0 | 0.00 | 0.00 | 0.00 | 74 | 1012.9 |
| 20260902053030 | 61 | 293 | 4.0 | 10.0 | 0.00 | 0.00 | 0.00 | 74 | 1013.0 |
| 20260902051605 | 61 | 318 | 4.0 | 9.0 | 0.00 | 0.00 | 0.00 | 75 | 1012.9 |
| 20260902050029 | 61 | 299 | 2.0 | 11.0 | 0.00 | 0.00 | 0.00 | 74 | 1012.7 |
| 20260902044531 | 61 | 280 | 1.0 | 7.0 | 0.00 | 0.00 | 0.00 | 74 | 1012.5 |
| 20260902043031 | 61 | 314 | 3.0 | 9.0 | 0.00 | 0.00 | 0.00 | 75 | 1012.4 |
| 20260902041531 | 61 | 293 | 2.0 | 10.0 | 0.00 | 0.00 | 0.00 | 74 | 1012.3 |
| 20260902034555 | 61 | 341 | 3.0 | 6.0 | 0.00 | 0.00 | 0.00 | 71 | 1012.0 |
| 20260902031532 | 64 | 281 | 4.0 | 9.0 | 0.00 | 0.00 | 0.00 | 64 | 1011.8 |
| 20260902030029 | 62 | 259 | 7.0 | 18.0 | 0.00 | 0.00 | 0.00 | 69 | 1011.9 |
| 20260902024531 | 62 | 268 | 4.0 | 12.0 | 0.00 | 0.00 | 0.00 | 71 | 1011.9 |
| 20260902021532 | 63 | 283 | 5.0 | 12.0 | 0.00 | 0.00 | 0.00 | 69 | 1011.6 |
| 20260902020106 | 64 | 299 | 5.0 | 13.0 | 0.00 | 0.00 | 0.00 | 67 | 1011.5 |
| 20260902014645 | 65 | 291 | 6.0 | 13.0 | 0.00 | 0.00 | 0.00 | 66 | 1011.4 |
| 20260902013033 | 66 | 277 | 4.0 | 12.0 | 0.00 | 0.00 | 0.00 | 63 | 1011.4 |
| 20260902011529 | 67 | 290 | 7.0 | 15.0 | 0.00 | 0.00 | 0.00 | 62 | 1011.2 |
| 20260902010031 | 67 | 296 | 7.0 | 16.0 | 0.00 | 0.00 | 0.00 | 62 | 1011.2 |
| 20260902004534 | 67 | 309 | 7.0 | 15.0 | 0.00 | 0.00 | 0.00 | 64 | 1011.1 |
| 20260902003032 | 66 | 317 | 9.0 | 20.0 | 0.00 | 0.00 | 0.00 | 65 | 1011.0 |
| 20260902001533 | 66 | 315 | 9.0 | 23.0 | 0.00 | 0.00 | 0.00 | 65 | 1011.0 |
| 20260902000032 | 66 | 320 | 9.0 | 18.0 | 0.00 | 0.00 | 0.00 | 65 | 1010.9 |
| 20260901234606 | 66 | 321 | 10.0 | 17.0 | 0.00 | 0.00 | 0.00 | 65 | 1011.0 |
| 20260901233147 | 66 | 327 | 10.0 | 21.0 | 0.00 | 0.00 | 0.00 | 64 | 1011.0 |
| 20260901230113 | 67 | 323 | 12.0 | 26.0 | 0.00 | 0.00 | 0.00 | 62 | 1010.9 |
| 20260901224532 | 69 | 310 | 14.0 | 28.0 | 0.00 | 0.00 | 0.00 | 60 | 1010.7 |
| 20260901223104 | 69 | 312 | 11.0 | 23.0 | 0.00 | 0.00 | 0.00 | 61 | 1010.6 |
| 20260901221530 | 68 | 313 | 12.0 | 26.0 | 0.00 | 0.00 | 0.00 | 62 | 1010.5 |
| 20260901220034 | 68 | 322 | 12.0 | 24.0 | 0.00 | 0.00 | 0.00 | 62 | 1010.4 |
| 20260901214532 | 68 | 331 | 9.0 | 19.0 | 0.00 | 0.00 | 0.00 | 63 | 1010.4 |
| 20260901213030 | 68 | 329 | 9.0 | 22.0 | 0.00 | 0.00 | 0.00 | 63 | 1010.6 |
| 20260901211528 | 68 | 323 | 10.0 | 20.0 | 0.00 | 0.00 | 0.00 | 62 | 1010.6 |
| 20260901210031 | 68 | 308 | 10.0 | 24.0 | 0.00 | 0.00 | 0.00 | 61 | 1010.7 |
| 20260901204608 | 69 | 313 | 9.0 | 20.0 | 0.00 | 0.00 | 0.00 | 61 | 1010.9 |
| 20260901203030 | 69 | 325 | 8.0 | 23.0 | 0.00 | 0.00 | 0.00 | 61 | 1010.9 |
| 20260901201531 | 68 | 321 | 9.0 | 21.0 | 0.00 | 0.00 | 0.00 | 62 | 1011.0 |
| 20260901200031 | 68 | 323 | 10.0 | 21.0 | 0.00 | 0.00 | 0.00 | 62 | 1011.1 |
| 20260901194533 | 68 | 336 | 7.0 | 15.0 | 0.00 | 0.00 | 0.00 | 63 | 1011.3 |
| 20260901193031 | 68 | 318 | 7.0 | 17.0 | 0.00 | 0.00 | 0.00 | 64 | 1011.6 |
| 20260901191532 | 67 | 331 | 7.0 | 15.0 | 0.00 | 0.00 | 0.00 | 65 | 1011.8 |
| 20260901190030 | 67 | 327 | 8.0 | 17.0 | 0.00 | 0.00 | 0.00 | 66 | 1011.8 |
| 20260901184532 | 66 | 328 | 8.0 | 16.0 | 0.00 | 0.00 | 0.00 | 68 | 1012.0 |
| 20260901181645 | 65 | 325 | 6.0 | 12.0 | 0.00 | 0.00 | 0.00 | 70 | 1012.2 |
| 20260901174532 | 64 | 332 | 6.0 | 12.0 | 0.00 | 0.00 | 0.00 | 72 | 1012.3 |
| 20260901173032 | 64 | 326 | 6.0 | 13.0 | 0.00 | 0.00 | 0.00 | 74 | 1012.3 |
| 20260901171532 | 62 | 319 | 4.0 | 7.0 | 0.00 | 0.00 | 0.00 | 76 | 1012.4 |
| 20260901170031 | 62 | 331 | 4.0 | 10.0 | 0.00 | 0.00 | 0.00 | 78 | 1012.4 |
| 20260901164530 | 61 | 330 | 3.0 | 9.0 | 0.00 | 0.00 | 0.00 | 80 | 1012.5 |
| 20260901163031 | 60 | 15 | 1.0 | 4.0 | 0.00 | 0.00 | 0.00 | 81 | 1012.4 |
| 20260901160032 | 59 | 45 | 0.0 | 3.0 | 0.00 | 0.00 | 0.00 | 84 | 1012.4 |
| 20260901154529 | 58 | 72 | 1.0 | 4.0 | 0.00 | 0.00 | 0.00 | 85 | 1012.3 |
| 20260901150032 | 57 | 67 | 3.0 | 6.0 | 0.00 | 0.00 | 0.00 | 87 | 1012.2 |
| 20260901144527 | 57 | 59 | 3.0 | 7.0 | 0.00 | 0.00 | 0.00 | 87 | 1012.1 |
| 20260901143030 | 57 | 70 | 4.0 | 7.0 | 0.00 | 0.00 | 0.00 | 87 | 1012.0 |
| 20260901140031 | 56 | 64 | 4.0 | 7.0 | 0.00 | 0.00 | 0.00 | 88 | 1011.7 |
| 20260901134609 | 56 | 65 | 4.0 | 7.0 | 0.00 | 0.00 | 0.00 | 88 | 1011.5 |
| 20260901133029 | 56 | 60 | 4.0 | 7.0 | 0.00 | 0.00 | 0.00 | 88 | 1011.3 |
| 20260901131531 | 56 | 60 | 4.0 | 8.0 | 0.00 | 0.00 | 0.00 | 87 | 1011.2 |
| 20260901130029 | 56 | 79 | 4.0 | 7.0 | 0.00 | 0.00 | 0.00 | 86 | 1011.1 |
| 20260901124530 | 57 | 72 | 4.0 | 8.0 | 0.00 | 0.00 | 0.00 | 86 | 1011.0 |
| 20260901123147 | 57 | 63 | 4.0 | 7.0 | 0.00 | 0.00 | 0.00 | 86 | 1010.9 |
| 20260901113030 | 56 | 73 | 4.0 | 7.0 | 0.00 | 0.00 | 0.00 | 90 | 1010.8 |
| 20260901111606 | 55 | 70 | 4.0 | 9.0 | 0.00 | 0.00 | 0.00 | 92 | 1010.8 |
| 20260901110031 | 52 | 67 | 3.0 | 7.0 | 0.00 | 0.00 | 0.00 | 92 | 1010.8 |
| 20260901104530 | 52 | 106 | 0.0 | 5.0 | 0.00 | 0.00 | 0.00 | 91 | 1010.8 |
| 20260901103032 | 52 | 104 | 1.0 | 4.0 | 0.00 | 0.00 | 0.00 | 90 | 1010.7 |
| 20260901101604 | 52 | 65 | 0.0 | 0.0 | 0.00 | 0.00 | 0.00 | 90 | 1010.7 |
| 20260901100031 | 52 | 45 | 0.0 | 0.0 | 0.00 | 0.00 | 0.00 | 89 | 1010.6 |